EZY968 LGSK-EGKK

Flight info

Callsign EZY968
Flight time N/A
Altitude 38000
Route TSL DCT TALAS DCT MAVAR DCT RINAV DCT RETRA DCT NETKO DCT OKLAX DCT PUL DCT ROTAR DCT SUMIR DCT SAFFA DCT RONAG DCT RLP DCT IRBAL DCT KUNAV
Aircraft A20N/M-SDE2E3FGHIRWXY/LB1

Departure

Time 2026-04-24 09:56
Airport Skiathos Island National Airport (LGSK)

Arrival

Time N/A
Airport London Gatwick Airport (EGKK)
Time Latitude Longitude Altitude Speed Heading
2026-04-24 09:26 39.17671 23.50217 36 ft 0 kts 292°
2026-04-24 09:46 39.17669 23.50220 35 ft 0 kts 271°
2026-04-24 09:46 39.17669 23.50226 34 ft 0 kts 299°
2026-04-24 09:46 39.17669 23.50228 34 ft 0 kts 306°
2026-04-24 09:47 39.17663 23.50245 34 ft 1 kts 254°
2026-04-24 09:47 39.17652 23.50226 34 ft 0 kts 220°
2026-04-24 09:51 39.17651 23.50226 34 ft 1 kts 220°
2026-04-24 09:52 39.17635 23.50221 34 ft 5 kts 196°
2026-04-24 09:52 39.17584 23.50215 33 ft 9 kts 161°
2026-04-24 09:52 39.17528 23.50270 34 ft 11 kts 171°
2026-04-24 09:52 39.17438 23.50240 30 ft 16 kts 200°
2026-04-24 09:53 39.17315 23.50184 27 ft 22 kts 199°
2026-04-24 09:53 39.17166 23.50116 21 ft 18 kts 199°
2026-04-24 09:53 39.17061 23.50092 19 ft 9 kts 166°
2026-04-24 09:53 39.17021 23.50049 15 ft 8 kts 295°
2026-04-24 09:54 39.17038 23.50048 16 ft 2 kts 17°
2026-04-24 09:54 39.17051 23.50056 18 ft 2 kts 28°
2026-04-24 09:54 39.17068 23.50068 20 ft 3 kts 28°
2026-04-24 09:54 39.17087 23.50079 19 ft 3 kts 19°
2026-04-24 09:55 39.17088 23.50079 19 ft 0 kts 19°
2026-04-24 09:55 39.17092 23.50081 19 ft 4 kts 19°
2026-04-24 09:56 39.17389 23.50213 29 ft 87 kts 18°
2026-04-24 09:56 39.18182 23.50556 99 ft 146 kts 19°
2026-04-24 09:56 39.19125 23.51012 705 ft 153 kts 19°
2026-04-24 09:56 39.20170 23.51516 1359 ft 168 kts 19°
2026-04-24 09:57 39.21314 23.52093 1948 ft 188 kts 19°
2026-04-24 09:57 39.22598 23.52749 2575 ft 210 kts 19°
2026-04-24 09:57 39.24036 23.53457 3136 ft 232 kts 19°
2026-04-24 09:57 39.25614 23.54226 3732 ft 252 kts 19°
2026-04-24 09:58 39.27292 23.55025 4591 ft 261 kts 19°
2026-04-24 09:58 39.29014 23.55820 5541 ft 265 kts 19°
2026-04-24 09:58 39.30752 23.56616 6582 ft 266 kts 19°
2026-04-24 09:58 39.32504 23.57421 7539 ft 268 kts 19°
2026-04-24 09:59 39.34268 23.58232 8488 ft 271 kts 19°
2026-04-24 09:59 39.36098 23.58814 9443 ft 274 kts
2026-04-24 09:59 39.37972 23.58344 10304 ft 280 kts 336°
2026-04-24 09:59 39.39560 23.56852 11077 ft 288 kts 317°
2026-04-24 10:00 39.40918 23.54902 11856 ft 295 kts 312°
2026-04-24 10:00 39.42277 23.52840 12407 ft 311 kts 313°
2026-04-24 10:00 39.43783 23.50689 12650 ft 334 kts 315°
2026-04-24 10:00 39.45444 23.48466 13068 ft 349 kts 317°
2026-04-24 10:01 39.47175 23.46230 13853 ft 354 kts 318°
2026-04-24 10:01 39.48939 23.43982 14582 ft 357 kts 318°
2026-04-24 10:01 39.50720 23.41722 15338 ft 360 kts 318°
2026-04-24 10:01 39.52518 23.39442 16085 ft 363 kts 318°
2026-04-24 10:02 39.54328 23.37142 16797 ft 366 kts 318°
2026-04-24 10:02 39.56155 23.34817 17524 ft 369 kts 318°
2026-04-24 10:02 39.57994 23.32472 18235 ft 373 kts 318°
2026-04-24 10:02 39.59849 23.30107 18850 ft 376 kts 318°
2026-04-24 10:03 39.61723 23.27716 19454 ft 379 kts 318°
2026-04-24 10:03 39.63612 23.25303 20056 ft 383 kts 318°
2026-04-24 10:03 39.65518 23.22866 20639 ft 386 kts 318°
2026-04-24 10:03 39.67436 23.20415 21204 ft 390 kts 318°
2026-04-24 10:04 39.69377 23.17931 21802 ft 393 kts 318°
2026-04-24 10:04 39.71332 23.15425 22383 ft 396 kts 318°
2026-04-24 10:04 39.73302 23.12896 22961 ft 400 kts 318°
2026-04-24 10:04 39.75287 23.10346 23530 ft 403 kts 317°
2026-04-24 10:05 39.77289 23.07770 24020 ft 406 kts 318°
2026-04-24 10:05 39.79302 23.05179 24516 ft 408 kts 318°
2026-04-24 10:05 39.81323 23.02574 25010 ft 410 kts 318°
2026-04-24 10:05 39.83355 22.99955 25501 ft 412 kts 318°
2026-04-24 10:06 39.85395 22.97322 25954 ft 415 kts 318°
2026-04-24 10:06 39.89507 22.92008 26872 ft 419 kts 318°
2026-04-24 10:06 39.91580 22.89327 27331 ft 420 kts 318°
2026-04-24 10:07 39.93659 22.86635 27756 ft 422 kts 318°
2026-04-24 10:07 39.95746 22.83929 28153 ft 425 kts 318°
2026-04-24 10:07 39.97848 22.81203 28559 ft 427 kts 318°
2026-04-24 10:07 39.99952 22.78470 28967 ft 428 kts 318°
2026-04-24 10:08 40.02067 22.75721 29336 ft 430 kts 318°
2026-04-24 10:08 40.04194 22.72954 29694 ft 432 kts 318°
2026-04-24 10:08 40.06297 22.70215 30067 ft 434 kts 318°
2026-04-24 10:08 40.08440 22.67422 30374 ft 436 kts 317°
2026-04-24 10:09 40.10592 22.64616 30664 ft 439 kts 317°
2026-04-24 10:09 40.12756 22.61790 30940 ft 441 kts 317°
2026-04-24 10:09 40.14932 22.58946 31267 ft 442 kts 317°
2026-04-24 10:09 40.17107 22.56100 31659 ft 442 kts 317°
2026-04-24 10:10 40.19275 22.53260 32038 ft 442 kts 317°
2026-04-24 10:10 40.21445 22.50414 32427 ft 441 kts 317°
2026-04-24 10:10 40.23611 22.47572 32810 ft 441 kts 317°
2026-04-24 10:10 40.25772 22.44734 33199 ft 440 kts 317°
2026-04-24 10:11 40.27932 22.41895 33561 ft 439 kts 317°
2026-04-24 10:11 40.30086 22.39059 33926 ft 439 kts 317°
2026-04-24 10:11 40.32236 22.36229 34250 ft 438 kts 317°
2026-04-24 10:11 40.34386 22.33393 34535 ft 438 kts 317°
2026-04-24 10:12 40.36534 22.30559 34808 ft 438 kts 317°
2026-04-24 10:12 40.38679 22.27725 35068 ft 438 kts 317°
2026-04-24 10:12 40.40822 22.24891 35324 ft 438 kts 316°
2026-04-24 10:12 40.42969 22.22051 35573 ft 438 kts 316°
2026-04-24 10:13 40.45112 22.19212 35810 ft 438 kts 316°
2026-04-24 10:13 40.47256 22.16368 36053 ft 438 kts 316°
2026-04-24 10:13 40.49398 22.13523 36297 ft 438 kts 316°
2026-04-24 10:13 40.51540 22.10677 36512 ft 438 kts 316°
2026-04-24 10:14 40.53681 22.07830 36735 ft 438 kts 316°
2026-04-24 10:14 40.55823 22.04977 36960 ft 438 kts 316°
2026-04-24 10:14 40.57960 22.02129 37180 ft 438 kts 316°
2026-04-24 10:14 40.60097 21.99278 37361 ft 438 kts 316°
2026-04-24 10:15 40.62232 21.96427 37579 ft 437 kts 316°
2026-04-24 10:15 40.64368 21.93572 37784 ft 437 kts 316°
2026-04-24 10:15 40.66504 21.90715 37973 ft 437 kts 316°
2026-04-24 10:16 40.70765 21.85006 38047 ft 436 kts 316°
2026-04-24 10:16 40.75017 21.79298 38055 ft 436 kts 316°
2026-04-24 10:17 40.79267 21.73582 38052 ft 437 kts 316°
2026-04-24 10:17 40.83518 21.67854 38062 ft 436 kts 316°
2026-04-24 10:18 40.87762 21.62122 38056 ft 436 kts 316°
2026-04-24 10:18 40.92000 21.56388 38058 ft 436 kts 316°
2026-04-24 10:19 40.96229 21.50655 38045 ft 435 kts 316°
2026-04-24 10:19 41.00453 21.44919 38053 ft 435 kts 316°
2026-04-24 10:20 41.04668 21.39182 38043 ft 435 kts 316°
2026-04-24 10:20 41.08882 21.33436 38038 ft 435 kts 316°
2026-04-24 10:21 41.13097 21.27678 38032 ft 435 kts 316°
2026-04-24 10:21 41.17313 21.21907 38036 ft 436 kts 316°
2026-04-24 10:22 41.21535 21.16115 38036 ft 437 kts 316°
2026-04-24 10:22 41.25736 21.10341 38045 ft 438 kts 316°
2026-04-24 10:23 41.29970 21.04510 38047 ft 439 kts 316°
2026-04-24 10:23 41.34210 20.98661 38061 ft 440 kts 316°
2026-04-24 10:24 41.38453 20.92792 38061 ft 440 kts 316°
2026-04-24 10:24 41.42697 20.86912 38068 ft 441 kts 316°
2026-04-24 10:25 41.46932 20.81031 38052 ft 439 kts 316°
2026-04-24 10:25 41.51155 20.75157 38048 ft 439 kts 316°
2026-04-24 10:26 41.55379 20.69270 38043 ft 438 kts 316°
2026-04-24 10:26 41.59592 20.63387 38055 ft 438 kts 316°
2026-04-24 10:27 41.63804 20.57496 38053 ft 439 kts 315°
2026-04-24 10:27 41.67646 20.51104 38062 ft 443 kts 307°
2026-04-24 10:28 41.70801 20.44044 38049 ft 442 kts 302°
2026-04-24 10:28 41.73868 20.36887 38060 ft 443 kts 302°
2026-04-24 10:29 41.76928 20.29726 38046 ft 443 kts 302°
2026-04-24 10:29 41.79975 20.22552 38053 ft 443 kts 302°
2026-04-24 10:30 41.83020 20.15358 38051 ft 444 kts 302°
2026-04-24 10:30 41.86058 20.08163 38054 ft 443 kts 302°
2026-04-24 10:31 41.89090 20.00963 38037 ft 443 kts 302°
2026-04-24 10:31 41.92118 19.93758 38042 ft 443 kts 302°
2026-04-24 10:32 41.95117 19.86604 38052 ft 443 kts 302°
2026-04-24 10:32 41.98157 19.79412 38050 ft 442 kts 305°
2026-04-24 10:33 42.01700 19.72707 38046 ft 439 kts 309°
2026-04-24 10:33 42.05299 19.66069 38042 ft 439 kts 309°
2026-04-24 10:34 42.08893 19.59418 38049 ft 440 kts 309°
2026-04-24 10:34 42.12492 19.52750 38059 ft 440 kts 309°
2026-04-24 10:35 42.16087 19.46074 38058 ft 440 kts 309°
2026-04-24 10:35 42.19075 19.40516 38072 ft 440 kts 309°
2026-04-24 10:36 42.23272 19.32687 38064 ft 441 kts 308°
2026-04-24 10:36 42.26148 19.26993 38076 ft 442 kts 307°
2026-04-24 10:37 42.29549 19.20076 38086 ft 442 kts 307°
2026-04-24 10:37 42.32970 19.13159 38067 ft 443 kts 307°
2026-04-24 10:38 42.36399 19.06241 38072 ft 443 kts 307°
2026-04-24 10:38 42.39823 18.99320 38067 ft 442 kts 307°
2026-04-24 10:39 42.43245 18.92388 38053 ft 443 kts 307°
2026-04-24 10:39 42.46663 18.85446 38064 ft 443 kts 307°
2026-04-24 10:40 42.50080 18.78491 38054 ft 443 kts 307°
2026-04-24 10:40 42.53493 18.71528 38047 ft 443 kts 307°
2026-04-24 10:41 42.56898 18.64565 38036 ft 443 kts 307°
2026-04-24 10:41 42.60294 18.57603 38038 ft 442 kts 307°
2026-04-24 10:42 42.63688 18.50630 38023 ft 443 kts 307°
2026-04-24 10:42 42.67079 18.43648 38041 ft 443 kts 307°
2026-04-24 10:43 42.70414 18.36764 38050 ft 439 kts 307°
2026-04-24 10:43 42.73792 18.29779 38043 ft 442 kts 307°
2026-04-24 10:44 42.77162 18.22788 38041 ft 441 kts 306°
2026-04-24 10:44 42.80532 18.15788 38044 ft 444 kts 307°
2026-04-24 10:45 42.83901 18.08765 38068 ft 442 kts 306°
2026-04-24 10:45 42.87271 18.01728 38070 ft 444 kts 306°
2026-04-24 10:46 42.90641 17.94671 38063 ft 443 kts 306°
2026-04-24 10:46 42.93997 17.87625 38072 ft 443 kts 306°
2026-04-24 10:47 42.97362 17.80547 38067 ft 444 kts 306°
2026-04-24 10:47 43.00719 17.73469 38069 ft 444 kts 306°
2026-04-24 10:48 43.04083 17.66363 38071 ft 445 kts 306°
2026-04-24 10:48 43.07605 17.59429 38069 ft 443 kts 309°
2026-04-24 10:49 43.11237 17.52612 38059 ft 443 kts 309°
2026-04-24 10:49 43.14823 17.45784 38064 ft 441 kts 309°
2026-04-24 10:50 43.18399 17.38916 38086 ft 445 kts 309°
2026-04-24 10:50 43.21987 17.31997 38089 ft 444 kts 309°
2026-04-24 10:51 43.25561 17.25087 38087 ft 443 kts 309°
2026-04-24 10:51 43.29124 17.18192 38093 ft 446 kts 309°
2026-04-24 10:52 43.32713 17.11226 38103 ft 447 kts 309°
2026-04-24 10:52 43.36294 17.04258 38089 ft 445 kts 309°
2026-04-24 10:53 43.39865 16.97293 38090 ft 446 kts 309°
2026-04-24 10:53 43.43436 16.90312 38091 ft 446 kts 309°
2026-04-24 10:54 43.46982 16.83363 38088 ft 447 kts 309°
2026-04-24 10:54 43.50549 16.76358 38090 ft 447 kts 309°
2026-04-24 10:55 43.54115 16.69338 38092 ft 447 kts 309°
2026-04-24 10:55 43.57677 16.62308 38095 ft 447 kts 309°
2026-04-24 10:56 43.61235 16.55272 38094 ft 447 kts 309°
2026-04-24 10:56 43.64788 16.48225 38094 ft 447 kts 309°
2026-04-24 10:57 43.68339 16.41166 38091 ft 447 kts 309°
2026-04-24 10:57 43.71885 16.34100 38090 ft 447 kts 309°
2026-04-24 10:58 43.75425 16.27030 38083 ft 447 kts 309°
2026-04-24 10:58 43.78960 16.19952 38078 ft 447 kts 309°
2026-04-24 10:59 43.82492 16.12865 38073 ft 447 kts 309°
2026-04-24 10:59 43.86025 16.05758 38079 ft 448 kts 309°
2026-04-24 11:00 43.89566 15.98643 38086 ft 449 kts 309°
2026-04-24 11:00 43.93100 15.91562 38090 ft 450 kts 309°
2026-04-24 11:01 43.96657 15.84420 38092 ft 450 kts 309°
2026-04-24 11:01 44.00215 15.77252 38109 ft 451 kts 309°
2026-04-24 11:02 44.03768 15.70073 38109 ft 450 kts 309°
2026-04-24 11:02 44.07307 15.62905 38110 ft 449 kts 309°
2026-04-24 11:03 44.10842 15.55730 38119 ft 450 kts 309°
2026-04-24 11:03 44.14373 15.48543 38118 ft 450 kts 309°
2026-04-24 11:04 44.17870 15.41408 38132 ft 450 kts 309°
2026-04-24 11:04 44.21425 15.34138 38137 ft 450 kts 309°
2026-04-24 11:05 44.24946 15.26918 38132 ft 450 kts 309°
2026-04-24 11:05 44.28464 15.19687 38121 ft 451 kts 309°
2026-04-24 11:06 44.31981 15.12440 38130 ft 451 kts 309°
2026-04-24 11:06 44.35486 15.05198 38118 ft 449 kts 309°
2026-04-24 11:07 44.40721 14.94351 38112 ft 449 kts 309°
2026-04-24 11:07 44.44204 14.87112 38116 ft 448 kts 309°
2026-04-24 11:08 44.47682 14.79863 38116 ft 448 kts 309°
2026-04-24 11:08 44.51151 14.72616 38121 ft 448 kts 309°
2026-04-24 11:09 44.54616 14.65359 38124 ft 448 kts 309°
2026-04-24 11:09 44.58072 14.58102 38126 ft 447 kts 309°
2026-04-24 11:10 44.61521 14.50842 38128 ft 447 kts 308°
2026-04-24 11:10 44.64966 14.43573 38129 ft 447 kts 308°
2026-04-24 11:11 44.68407 14.36292 38131 ft 447 kts 308°
2026-04-24 11:11 44.71845 14.29001 38130 ft 447 kts 308°
2026-04-24 11:12 44.75272 14.21712 38125 ft 447 kts 308°
2026-04-24 11:12 44.78698 14.14411 38123 ft 447 kts 308°
2026-04-24 11:13 44.82113 14.07111 38126 ft 446 kts 308°
2026-04-24 11:13 44.85524 13.99803 38127 ft 446 kts 308°
2026-04-24 11:14 44.88903 13.92535 38126 ft 447 kts 307°
2026-04-24 11:14 44.92021 13.84922 38126 ft 448 kts 305°
2026-04-24 11:15 44.95160 13.77248 38123 ft 448 kts 304°
2026-04-24 11:15 44.98247 13.69661 38120 ft 448 kts 304°
2026-04-24 11:16 45.01345 13.62005 38124 ft 448 kts 304°
2026-04-24 11:16 45.04433 13.54346 38123 ft 448 kts 304°
2026-04-24 11:17 45.07517 13.46678 38127 ft 449 kts 304°
2026-04-24 11:17 45.10598 13.38998 38128 ft 449 kts 304°
2026-04-24 11:18 45.13671 13.31314 38132 ft 449 kts 304°
2026-04-24 11:18 45.16743 13.23613 38134 ft 449 kts 304°
2026-04-24 11:19 45.19807 13.15910 38129 ft 449 kts 304°
2026-04-24 11:19 45.22869 13.08192 38137 ft 449 kts 304°
2026-04-24 11:20 45.26024 13.00560 38129 ft 446 kts 309°
2026-04-24 11:20 45.29215 12.94888 38127 ft 440 kts 316°
2026-04-24 11:21 45.33979 12.87284 38119 ft 441 kts 316°
2026-04-24 11:21 45.37355 12.81859 38117 ft 441 kts 316°
2026-04-24 11:22 45.41420 12.75323 38112 ft 441 kts 316°
2026-04-24 11:22 45.45477 12.68789 38108 ft 441 kts 316°
2026-04-24 11:23 45.49535 12.62238 38105 ft 440 kts 316°
2026-04-24 11:23 45.53584 12.55686 38107 ft 441 kts 315°
2026-04-24 11:24 45.57634 12.49118 38104 ft 441 kts 315°
2026-04-24 11:24 45.61679 12.42541 38106 ft 441 kts 315°
2026-04-24 11:25 45.65721 12.35955 38108 ft 441 kts 315°
2026-04-24 11:25 45.69760 12.29356 38104 ft 441 kts 315°
2026-04-24 11:26 45.73797 12.22744 38106 ft 441 kts 315°
2026-04-24 11:26 45.77827 12.16129 38105 ft 441 kts 315°
2026-04-24 11:27 45.81853 12.09505 38109 ft 441 kts 315°
2026-04-24 11:27 45.85879 12.02865 38108 ft 441 kts 315°
2026-04-24 11:28 45.89902 11.96214 38110 ft 441 kts 315°
2026-04-24 11:28 45.93921 11.89554 38113 ft 441 kts 315°
2026-04-24 11:29 45.97930 11.82894 38116 ft 440 kts 314°